[[{"header":{"parameterUnit":"m.s-1","parameterCategory":1,"la1":30.2991,"la2":30.254,"lo1":-89.0895,"lo2":-89.0444,"dy":0.0017,"dx":0.0017,"nx":28,"ny":28,"refTime":"2024-03-20T09:00:00:Z","depth":0,"parameterNumber":2,"parameterNumberName":"U-component_of_WINDS"},"data":[0,0,0,0,0,0,0,0,0,0,0,0,0,0,0,0,0,0,0,0,0,0,0,0,0,0,0,0,0,0,0,0,0,0,0,0,0,0,0,0,0,0,0,0,0,0,0,0,0,0,0,0,0,0,0,0,0,0,0.8597,0.8597,0,0.8607,0.8607,0.8607,0.853,0.8527,0.8525,0.8523,0.8535,0.8537,0.8539,0,0,0,0,0,0,0,0,0,0,0,0,0,0.8511,0.8513,0.8597,0.8597,0.8597,0.8607,0.8607,0.8607,0.853,0.8527,0.8525,0.8522,0.8534,0.8537,0.8539,0,0,0,0,0,0,0,0,0,0,0,0,0,0.8538,0.8514,0.8597,0.856,0.8556,0.8607,0.8607,0.8607,0.8531,0.8527,0.8524,0.8521,0.8533,0.8536,0.854,0.8626,0,0,0.855,0.8552,0,0,0,0,0,0,0,0,0.8536,0.8541,0.8565,0.8562,0.8559,0.8564,0.8581,0.8614,0.8531,0.854,0.8523,0.8519,0.8547,0.8549,0.8558,0.8627,0.8627,0.8551,0.8553,0.8554,0.8555,0,0,0,0,0,0,0,0.8534,0.854,0.8601,0.8565,0.8562,0.8543,0.8543,0.8587,0.8562,0.8539,0.8534,0.8536,0.8545,0.8555,0.8558,0.8628,0.8551,0.8554,0.8556,0.8557,0.8769,0.8772,0,0,0,0,0,0,0.8537,0.8539,0.86,0.8601,0.8539,0.8547,0.8547,0.8565,0.8561,0.8557,0.8539,0.8532,0.8551,0.8554,0.8558,0.866,0.8554,0.8557,0.8559,0.8765,0.877,0.8774,0,0,0,0,0,0,0.8536,0.8544,0.86,0.8568,0.8574,0.8552,0.8573,0.8567,0.8577,0.8561,0.8556,0.8554,0.8548,0.8553,0.861,0.8659,0.8559,0.8562,0.8761,0.8767,0.8772,0.8865,0,0,0,0,0,0,0.8534,0.8544,0.8576,0.857,0.8576,0.8652,0.8576,0.857,0.8584,0.8575,0.8574,0.857,0.8546,0.8605,0.8614,0.8662,0.8565,0.8757,0.8764,0.877,0.8857,0.8873,0.8886,0,0,0,0,0,0.8531,0.8602,0.8578,0.8586,0.8616,0.8655,0.8659,0.8629,0.8588,0.8621,0.861,0.857,0.8652,0.8612,0.862,0.8671,0.8754,0.8762,0.8769,0.8851,0.887,0.8886,0,0,0,0,0,0,0.8615,0.86,0.8574,0.8645,0.8652,0.8642,0.8682,0.865,0.8669,0.866,0.8623,0.8623,0.8687,0.8684,0.8639,0.8755,0.8696,0.8706,0.8755,0.8772,0.8787,0.8786,0.8568,0,0,0,0,0,0.8642,0.8674,0.8659,0.8723,0.8728,0.8705,0.8721,0.8697,0.8703,0.8706,0.8699,0.8706,0.8734,0.8753,0.8777,0.8856,0.8855,0.8895,0.8909,0.8921,0.8931,0.8974,0.8992,0.88,0.88,0.8799,0,0,0.8697,0.8693,0.8716,0.874,0.8743,0.8778,0.8708,0.8747,0.8773,0.8712,0.8766,0.8761,0.8767,0.8836,0.8866,0.8835,0.8983,0.8931,0.8941,0.8944,0.8984,0.9002,0.9018,0.8805,0.8804,0.8803,0,0,0.8817,0.8816,0.887,0.8874,0.8879,0.8863,0.8876,0.8871,0.8866,0.8919,0.8874,0.8904,0.8952,0.8958,0.8968,0.909,0.9055,0.9099,0.9174,0.9216,0.9231,0.9244,0.9289,0.9306,0.9108,0.9108,0.9108,0,0.8885,0.8936,0.8902,0.8945,0.8958,0.8903,0.8958,0.8963,0.8976,0.8986,0.8952,0.9011,0.9011,0.9081,0.9111,0.912,0.9135,0.9099,0.9232,0.9245,0.9257,0.9299,0.9316,0.9114,0.9113,0.9113,0.9112,0,0.9021,0.9057,0.9099,0.9113,0.913,0.9179,0.9153,0.9174,0.9149,0.9137,0.9193,0.9191,0.9214,0.9229,0.9205,0.9296,0.9277,0.9238,0.9178,0.9281,0.932,0.9336,0.9122,0.912,0.9118,0.9117,0,0,0.9194,0.9189,0.9205,0.9211,0.9213,0.924,0.9286,0.9309,0.9328,0.9339,0.9378,0.9419,0.9383,0.9394,0.937,0.9407,0.9506,0.9363,0.9363,0.9391,0.9607,0.9638,0.9657,0.9482,0.9485,0.9487,0.9607,0,0.9312,0.9391,0.9362,0.9443,0.9476,0.9425,0.9465,0.9471,0.9461,0.9488,0.9476,0.9507,0.9456,0.9463,0.9497,0.9487,0.9549,0.9477,0.9518,0.952,0.952,0.9677,0.971,0.9824,0.9622,0.9625,0.9627,0,0.946,0.9477,0.9562,0.9558,0.9571,0.9608,0.9626,0.9652,0.9658,0.9648,0.966,0.9629,0.9674,0.9613,0.9676,0.9628,0.9643,0.9641,0.9644,0.9648,0.9581,0.9687,0.9859,0.9877,0.965,0.9648,0.9647,0,0.958,0.9624,0.968,0.9687,0.9683,0.9711,0.9711,0.9712,0.9728,0.9745,0.9755,0.9776,0.9789,0.9806,0.9781,0.9739,0.9848,0.9785,0.9842,0.9843,0.9869,0.9868,1.0047,0.9876,0.9876,0.9876,0.9875,0,0.9716,0.977,0.9734,0.9769,0.9828,0.9794,0.9854,0.9848,0.9851,0.9884,0.984,0.9872,0.9837,0.9866,0.9847,0.9902,0.9908,0.9902,0.9896,0.9907,0.9908,0.9917,0.9909,0.988,0.9879,0.9878,0.9878,0,0.986,0.9838,0.9897,0.9889,0.9888,0.9932,0.9925,0.9958,0.9944,0.9987,0.9995,0.9974,1.0006,0.9983,1.0014,1.0001,1.0075,1.0058,1.0074,1.0069,1.0128,1.0124,1.0321,1.0346,1.0158,1.016,1.0161,0,0.9949,0.9989,0.9986,1.0005,1.0008,1.0039,1.0055,1.0023,1.0041,1.005,1.0082,1.011,1.0131,1.0184,1.0172,1.0196,1.018,1.0248,1.0184,1.0193,1.0183,1.0181,1.0186,1.0261,1.0263,1.0265,1.0267,0,1.0109,1.0096,1.0121,1.0142,1.0162,1.0177,1.0189,1.0207,1.0174,1.0197,1.0229,1.0246,1.0278,1.0307,1.0327,1.0326,1.0292,1.0287,1.0301,1.0313,1.0321,1.0319,1.011,1.0283,1.0281,1.028,1.0279,1.0278,1.0229,1.0263,1.0266,1.0295,1.03,1.0312,1.0342,1.0333,1.0359,1.0383,1.0362,1.0401,1.0405,1.0428,1.0433,1.0463,1.0435,1.0456,1.0462,1.0468,1.0477,1.0315,1.0466,1.0466,1.0465,1.0465,1.0464,0,1.0388,1.0387,1.0414,1.0432,1.0455,1.0419,1.043,1.0452,1.0487,1.0494,1.0515,1.0553,1.0581,1.0571,1.0595,1.0622,1.0607,1.0629,1.0628,1.0629,1.05,1.0485,1.0641,1.0641,1.0641,1.0641,1.0641,1.0641,1.0474,1.053,1.0517,1.0576,1.0574,1.0612,1.0622,1.0633,1.0638,1.0682,1.0705,1.0698,1.0698,1.0723,1.0747,1.0743,1.0755,1.0784,1.0775,1.0655,1.0638,1.0621,1.0607,1.0787,1.0787,1.0901,1.0902,1.0903]},{"header":{"parameterUnit":"m.s-1","parameterCategory":1,"la1":30.2991,"la2":30.254,"lo1":-89.0895,"lo2":-89.0444,"dy":0.0017,"dx":0.0017,"nx":28,"ny":28,"refTime":"2024-03-20T09:00:00:Z","depth":0,"parameterNumber":3,"parameterNumberName":"V-component_of_WINDS"},"data":[0,0,0,0,0,0,0,0,0,0,0,0,0,0,0,0,0,0,0,0,0,0,0,0,0,0,0,0,0,0,0,0,0,0,0,0,0,0,0,0,0,0,0,0,0,0,0,0,0,0,0,0,0,0,0,0,0,0,-1.6482,-1.6482,0,-1.6511,-1.6511,-1.6511,-1.6514,-1.6514,-1.6514,-1.6513,-1.6542,-1.6543,-1.6544,0,0,0,0,0,0,0,0,0,0,0,0,0,-1.6428,-1.6428,-1.6482,-1.6482,-1.6482,-1.6511,-1.6511,-1.6512,-1.6514,-1.6514,-1.6513,-1.6513,-1.6542,-1.6543,-1.6544,0,0,0,0,0,0,0,0,0,0,0,0,0,-1.6453,-1.6429,-1.6482,-1.6487,-1.6488,-1.6511,-1.6511,-1.6512,-1.6514,-1.6514,-1.6513,-1.6513,-1.6541,-1.6543,-1.6544,-1.6563,0,0,-1.6549,-1.655,0,0,0,0,0,0,0,0,-1.6452,-1.6455,-1.6486,-1.6487,-1.6488,-1.6508,-1.6503,-1.6529,-1.6514,-1.6504,-1.6513,-1.6513,-1.6531,-1.6534,-1.654,-1.6565,-1.6566,-1.6549,-1.655,-1.6551,-1.6551,0,0,0,0,0,0,0,-1.645,-1.6454,-1.6493,-1.6486,-1.6487,-1.6488,-1.6491,-1.6508,-1.652,-1.6505,-1.6505,-1.6509,-1.6532,-1.6538,-1.6541,-1.6566,-1.6549,-1.6551,-1.6552,-1.6552,-1.6608,-1.6609,0,0,0,0,0,0,-1.6447,-1.6452,-1.6492,-1.6494,-1.6468,-1.6489,-1.6493,-1.6502,-1.652,-1.6522,-1.6509,-1.6509,-1.6536,-1.6539,-1.6542,-1.6565,-1.6551,-1.6552,-1.6553,-1.6608,-1.6608,-1.6609,0,0,0,0,0,0,-1.6446,-1.6451,-1.6491,-1.6473,-1.6479,-1.6491,-1.6501,-1.6503,-1.651,-1.6523,-1.6525,-1.6514,-1.6536,-1.6539,-1.6558,-1.6566,-1.6553,-1.6555,-1.6607,-1.6608,-1.6609,-1.6611,0,0,0,0,0,0,-1.6445,-1.645,-1.6458,-1.6474,-1.6479,-1.6507,-1.6502,-1.6504,-1.6513,-1.6513,-1.6528,-1.653,-1.6536,-1.6556,-1.656,-1.6568,-1.6556,-1.6606,-1.6607,-1.6608,-1.6611,-1.6612,-1.6613,0,0,0,0,0,-1.6443,-1.6457,-1.6458,-1.6463,-1.6489,-1.6507,-1.6511,-1.6517,-1.6513,-1.6521,-1.6529,-1.6529,-1.6565,-1.6558,-1.6562,-1.6571,-1.6606,-1.6607,-1.6608,-1.661,-1.6612,-1.6613,0,0,0,0,0,0,-1.6441,-1.6459,-1.646,-1.648,-1.6492,-1.6508,-1.6517,-1.6519,-1.6532,-1.6531,-1.6539,-1.6542,-1.656,-1.6568,-1.6559,-1.659,-1.6585,-1.6587,-1.6585,-1.6586,-1.6588,-1.6585,-1.6557,0,0,0,0,0,-1.6443,-1.6457,-1.6472,-1.6488,-1.6494,-1.6505,-1.6513,-1.6517,-1.653,-1.6535,-1.6544,-1.6556,-1.657,-1.6579,-1.6592,-1.6612,-1.6615,-1.662,-1.6622,-1.6623,-1.6624,-1.6636,-1.6638,-1.6613,-1.6613,-1.6613,0,0,-1.6447,-1.6459,-1.6467,-1.6488,-1.6498,-1.6512,-1.6509,-1.6524,-1.6534,-1.6537,-1.6555,-1.6563,-1.6576,-1.6596,-1.6605,-1.6602,-1.6632,-1.6625,-1.6625,-1.6626,-1.6637,-1.6639,-1.6641,-1.6614,-1.6614,-1.6614,0,0,-1.6462,-1.6472,-1.6487,-1.6497,-1.6512,-1.6519,-1.6523,-1.6538,-1.6544,-1.6562,-1.6565,-1.6577,-1.6601,-1.661,-1.6618,-1.6638,-1.6639,-1.6642,-1.6649,-1.666,-1.6662,-1.6664,-1.667,-1.6673,-1.6644,-1.6644,-1.6644,0,-1.6465,-1.6486,-1.6494,-1.6509,-1.6518,-1.6522,-1.6537,-1.6546,-1.6565,-1.6571,-1.6568,-1.6598,-1.6608,-1.663,-1.6634,-1.6641,-1.6645,-1.664,-1.6661,-1.6663,-1.6665,-1.6671,-1.6674,-1.6644,-1.6644,-1.6644,-1.6644,0,-1.6489,-1.6504,-1.6514,-1.6532,-1.6543,-1.6557,-1.6567,-1.6577,-1.6581,-1.6588,-1.6607,-1.6619,-1.6635,-1.6641,-1.6644,-1.6663,-1.6661,-1.666,-1.6654,-1.6667,-1.6673,-1.6676,-1.6645,-1.6645,-1.6645,-1.6644,0,0,-1.6502,-1.6526,-1.6529,-1.6537,-1.6555,-1.6566,-1.6582,-1.6598,-1.6605,-1.6619,-1.6631,-1.6652,-1.6651,-1.666,-1.6665,-1.6674,-1.6689,-1.6672,-1.6673,-1.6674,-1.671,-1.671,-1.6713,-1.669,-1.6691,-1.6691,-1.6709,0,-1.6518,-1.6545,-1.6553,-1.6576,-1.6589,-1.6594,-1.6607,-1.6619,-1.6627,-1.664,-1.6648,-1.6662,-1.6661,-1.6666,-1.6676,-1.6685,-1.6696,-1.6684,-1.6701,-1.6702,-1.6696,-1.6716,-1.6716,-1.6732,-1.6711,-1.6712,-1.6712,0,-1.654,-1.6554,-1.6578,-1.6594,-1.66,-1.6612,-1.6627,-1.664,-1.6654,-1.6659,-1.667,-1.6674,-1.669,-1.6684,-1.6706,-1.6698,-1.6706,-1.6711,-1.6712,-1.6713,-1.6707,-1.6717,-1.6737,-1.6739,-1.6716,-1.6715,-1.6715,0,-1.6546,-1.6571,-1.6589,-1.6596,-1.6615,-1.6624,-1.6632,-1.6646,-1.6655,-1.6669,-1.6675,-1.669,-1.6699,-1.671,-1.6719,-1.6714,-1.674,-1.6735,-1.6744,-1.6744,-1.6748,-1.6747,-1.6769,-1.6755,-1.6755,-1.6755,-1.6755,0,-1.6563,-1.6577,-1.6592,-1.6602,-1.6619,-1.6628,-1.6644,-1.6653,-1.6665,-1.6678,-1.6683,-1.6695,-1.6705,-1.6718,-1.6725,-1.6742,-1.6746,-1.675,-1.6752,-1.6749,-1.6748,-1.6753,-1.6752,-1.6755,-1.6755,-1.6755,-1.6755,0,-1.6572,-1.6582,-1.6602,-1.6619,-1.6624,-1.6635,-1.665,-1.666,-1.6669,-1.6684,-1.6689,-1.6702,-1.6718,-1.6727,-1.6747,-1.6752,-1.677,-1.6772,-1.6765,-1.6766,-1.6774,-1.6773,-1.6799,-1.6803,-1.6786,-1.6786,-1.6786,0,-1.6581,-1.6592,-1.6611,-1.662,-1.6628,-1.6643,-1.6652,-1.6662,-1.6672,-1.669,-1.6698,-1.6715,-1.6728,-1.6753,-1.6764,-1.6779,-1.6781,-1.6789,-1.6783,-1.678,-1.678,-1.6779,-1.678,-1.6789,-1.6789,-1.679,-1.679,0,-1.6596,-1.6601,-1.6615,-1.6631,-1.6642,-1.6655,-1.6668,-1.6675,-1.6688,-1.6699,-1.6715,-1.6725,-1.6746,-1.6762,-1.6779,-1.6787,-1.679,-1.6792,-1.6794,-1.6791,-1.6787,-1.6789,-1.6767,-1.6791,-1.6791,-1.679,-1.679,-1.679,-1.6605,-1.6615,-1.663,-1.6645,-1.6656,-1.6669,-1.668,-1.669,-1.6704,-1.6721,-1.6727,-1.6744,-1.6758,-1.6781,-1.679,-1.6803,-1.6802,-1.6806,-1.6807,-1.6808,-1.6807,-1.6786,-1.6806,-1.6806,-1.6806,-1.6806,-1.6806,0,-1.6619,-1.6629,-1.6644,-1.6662,-1.6674,-1.6677,-1.6692,-1.6702,-1.6717,-1.673,-1.6744,-1.6763,-1.6778,-1.6791,-1.6807,-1.6816,-1.6818,-1.682,-1.6818,-1.682,-1.6808,-1.6803,-1.6818,-1.6818,-1.6818,-1.6818,-1.6818,-1.6818,-1.6628,-1.6646,-1.6653,-1.6676,-1.6686,-1.6703,-1.6711,-1.6722,-1.6733,-1.6754,-1.6767,-1.6776,-1.6789,-1.6806,-1.6821,-1.6824,-1.683,-1.6831,-1.6835,-1.6823,-1.6821,-1.682,-1.6816,-1.6833,-1.6833,-1.6846,-1.6847,-1.6847]}]]